Meteopurmerend
purmerend
Purmerend - Baaienwijk



My webcam  My webcam


Onweer radar Meer informatie blitzortung!


Regen radar Meer informatie rain snow radar


Bezoek onze andere website:

CandyAppleRed WebdesignWebdesign Purmerend Candy Apple Red

MeteopurmerendBlog

Template documentation
and downloads



Wind van: 21-10-2021 08:00 tot: 20:00 waarschuwing voor: Wind niveau: Geel info button
Met name bij buien kans op zware windstoten rond 75 km/uur, in de kustgebieden van 80-90 km/uur.Kans op windstoten.Verkeer en buitenactiviteiten kunnen hinder ondervinden.Volg weerberichten en waarschuwingen.

15 daagse weersverwachting Hämeenlinna (FI)

  • Overzicht
  • Per uur
  • 15 dagen
  • Extra
  • Vergelijk
  • Kaarten
  • Dagkaart
  • Meer »
  • Info
  • Statistieken
  • Directe link
    Temp 6h Neerslag Wind  
 08:23     17:52    Daglengte: 9:29 Vandaag
15:00
10°
 
4
21:00
2.5 mm
3
 08:25     17:49    Daglengte: 9:24 Morgen
03:00
15.9 mm
3
09:00
18.0 mm
6
15:00
22.5 mm
7
21:00
20.6 mm
5
 08:28     17:46    Daglengte: 9:18 Zaterdag 23 Okt
03:00
17.0 mm
4
warningclass
09:00
17.5 mm
5
warningclass
15:00
 
5
21:00
-1°
 
4
 08:31     17:43    Daglengte: 9:12 Zondag 24 Okt
03:00
-2°
 
3
09:00
-4°
 
1
Locatie info
Region: Kanta-Häme
Latitude: 60.9969°N
Longitude: 24.4663°E
83 masl
Postcode: 13100
Temp/Neerslag /Baro Onweer/Dauwpunt
    Temp Baro 1h Neerslag Dauwpunt Wind UV Bewolking  
 08:23     17:52    Daglengte: 9:29 Vandaag
13:00
10°
Voelt als: 7.7°
979.6 hPa
14%
5.2°
4
Windvlaag: 7.5 m/s
53%
14:00
10°
979.5 hPa
17%
5.3°
4
Windvlaag: 7.5 m/s
59%
15:00
10°
978.8 hPa
14%
5.0°
4
Windvlaag: 7.3 m/s
28%
16:00
10°
978.2 hPa
14%
5.0°
3
Windvlaag: 6.8 m/s
23%
17:00
10°
Voelt als: 8.4°
977.2 hPa
14%
5.1°
2
Windvlaag: 6 m/s
21%
18:00
Voelt als: 7.3°
976.1 hPa
14%
6.8°
2
Windvlaag: 6.3 m/s
71%
19:00
Voelt als: 6.8°
974.8 hPa
69%
8.1°
3
Windvlaag: 6.7 m/s
86%
20:00
Voelt als: 6.8°
973.2 hPa
81%
8.5°
3
Windvlaag: 6.5 m/s
86%
21:00
Voelt als: 6.7°
971.9 hPa 2.5 mm
82%
8.4°
3
Windvlaag: 6.2 m/s
86%
22:00
Voelt als: 6.9°
969.9 hPa 3.5 mm
82%
8.3°
3
Windvlaag: 6.4 m/s
86%
23:00
Voelt als: 6.4°
968.1 hPa 4.7 mm
82%
8.1°
4
Windvlaag: 0.5 m/s
86%
 08:25     17:49    Daglengte: 9:24 Morgen
00:00
Voelt als: 6.7°
966.8 hPa 2.9 mm
82%
8.3°
3
Windvlaag: 1 m/s
85%
01:00
Voelt als: 7.2°
965.7 hPa
82%
8.5°
3
Windvlaag: 3 m/s
86%
02:00
Voelt als: 6.5°
965.3 hPa 2.4 mm
82%
8.2°
3
Windvlaag: 4.2 m/s
81%
03:00
Voelt als: 6.6°
964.8 hPa 2.4 mm
82%
8.3°
3
Windvlaag: 4.9 m/s
86%
04:00
Voelt als: 4.9°
965.1 hPa 2.4 mm
82%
7.3°
4
Windvlaag: 7.4 m/s
86%
05:00
Voelt als: 4.3°
965.4 hPa 2.6 mm
82%
6.7°
5
Windvlaag: 7.4 m/s
86%
06:00
Voelt als: 3.8°
966.1 hPa 3.1 mm
82%
6.2°
5
Windvlaag: 8.5 m/s
86%
07:00
Voelt als: 2.0°
966.9 hPa 3.3 mm
82%
5.1°
6
Windvlaag: 8.1 m/s
85%
08:00
Voelt als: 1.5°
967.4 hPa 3.3 mm
82%
4.4°
6
Windvlaag: 7.8 m/s
86%
09:00
Voelt als: 1.3°
967.9 hPa 3.4 mm
82%
3.9°
6
Windvlaag: 7.6 m/s
86%
10:00
Voelt als: 0.7°
968.9 hPa 3.7 mm
82%
3.4°
6
Windvlaag: 7.5 m/s
85%
11:00
Voelt als: 0.5°
970.1 hPa 3.7 mm
82%
3.3°
6
Windvlaag: 7 m/s
84%
12:00
Voelt als: 0.5°
971.4 hPa 3.8 mm
82%
3.4°
7
Windvlaag: 6.6 m/s
84%
13:00
Voelt als: 0.6°
972.6 hPa 4.1 mm
82%
3.4°
7
Windvlaag: 6.3 m/s
86%
14:00
Voelt als: 0.2°
973.8 hPa 3.8 mm
82%
3.1°
7
Windvlaag: 6.5 m/s
86%
15:00
Voelt als: -0.9°
974.9 hPa 3.4 mm
82%
2.2°
7
Windvlaag: 6.6 m/s
86%
16:00
Voelt als: -1.1°
976.0 hPa 3.5 mm
82%
2.0°
6
Windvlaag: 6.1 m/s
86%
17:00
Voelt als: -1.2°
977.1 hPa 3.4 mm
82%
2.1°
6
Windvlaag: 5.2 m/s
86%
18:00
Voelt als: -1.3°
978.2 hPa 3.4 mm
82%
2.0°
5
Windvlaag: 4.9 m/s
86%
19:00
Voelt als: -1.3°
979.3 hPa 3.3 mm
82%
2.0°
5
Windvlaag: 4.3 m/s
86%
20:00
Voelt als: -1.6°
980.4 hPa 3.4 mm
82%
1.7°
5
Windvlaag: 3 m/s
86%
21:00
Voelt als: -1.4°
981.1 hPa 3.6 mm
82%
1.4°
5
Windvlaag: 1.6 m/s
86%
22:00
Voelt als: -1.7°
982.0 hPa 3.6 mm
82%
1.2°
4
Windvlaag: 0.6 m/s
86%
23:00
Voelt als: -2.1°
983.0 hPa 3.5 mm
82%
1.0°
4
Windvlaag: -0.2 m/s
86%
 08:28     17:46    Daglengte: 9:18 Zaterdag 23 Okt
00:00
Voelt als: -2.3°
983.9 hPa 3.3 mm
82%
0.8°
4
Windvlaag: -1.3 m/s
84%
01:00
Voelt als: -2.7°
985.0 hPa 3.3 mm
82%
0.4°
4
Windvlaag: -1.6 m/s
82%
02:00
Voelt als: -2.9°
986.1 hPa 3.2 mm
82%
0.2°
4
Windvlaag: -3 m/s
85% warningclass
03:00
Voelt als: -2.9°
987.0 hPa
82%
0.4°
4
Windvlaag: -2.4 m/s
86%
04:00
Voelt als: -3.0°
988.1 hPa
82%
0.7°
4
Windvlaag: -3.1 m/s
80%
05:00
Voelt als: -3.2°
989.3 hPa 3.1 mm
82%
0.6°
4
Windvlaag: -3.6 m/s
86% warningclass
06:00
Voelt als: -3.7°
991.0 hPa 3.1 mm
100%
-0.6°
5
Windvlaag: -3.1 m/s
100% warningclass
07:00
Voelt als: -4.0°
992.7 hPa 3.1 mm
100%
-1.4°
5
Windvlaag: -3.3 m/s
94% warningclass
08:00
Voelt als: -4.4°
994.3 hPa 3.1 mm
100%
-1.3°
5
Windvlaag: -3.3 m/s
93% warningclass
09:00
Voelt als: -4.4°
995.9 hPa 5.1 mm
100%
-0.5°
5
Windvlaag: -4.1 m/s
91% warningclass
10:00
Voelt als: -4.2°
997.6 hPa
100%
0.0°
5
Windvlaag: -4.3 m/s
95%
11:00
Voelt als: -3.8°
999.3 hPa
47%
0.4°
5
Windvlaag: -4.5 m/s
100%
12:00
Voelt als: -3.3°
1001.1 hPa
84%
-1.2°
5
Windvlaag: -4.6 m/s
97%
13:00
Voelt als: -3.1°
1002.7 hPa
38%
-0.9°
5
Windvlaag: -4.9 m/s
99%
14:00
Voelt als: -2.9°
1004.3 hPa
31%
-1.1°
5
Windvlaag: -5.1 m/s
99%
15:00
Voelt als: -2.9°
1005.9 hPa
25%
-1.6°
5
Windvlaag: -4.7 m/s
98%
16:00
Voelt als: -3.1°
1007.4 hPa
21%
-1.8°
5
Windvlaag: -4.6 m/s
96%
17:00
Voelt als: -3.6°
1009.0 hPa
21%
-2.6°
5
Windvlaag: -4.3 m/s
96%
18:00
Voelt als: -4.0°
1010.5 hPa
21%
-2.9°
4
Windvlaag: -4.5 m/s
74%
19:00
Voelt als: -4.2°
1011.8 hPa
21%
-3.0°
4
Windvlaag: -4 m/s
87%
20:00
-0°
Voelt als: -4.9°
1013.1 hPa
21%
-3.3°
4
Windvlaag: -3.8 m/s
82%
21:00
-1°
Voelt als: -5.4°
1014.2 hPa
21%
-3.6°
4
Windvlaag: -4.2 m/s
65%
22:00
-1°
Voelt als: -5.5°
1015.3 hPa
21%
-3.7°
4
Windvlaag: -4 m/s
49%
23:00
-2°
Voelt als: -5.9°
1016.1 hPa
21%
-4.2°
3
Windvlaag: -2.8 m/s
34%
 08:31     17:43    Daglengte: 9:12 Zondag 24 Okt
00:00
-2°
Voelt als: -6.3°
1017.5 hPa
21%
-4.4°
4
Windvlaag: -3 m/s
39%
01:00
-2°
Voelt als: -6.2°
1018.5 hPa
21%
-4.4°
3
Windvlaag: -3.1 m/s
39%
02:00
-2°
Voelt als: -6.1°
1019.3 hPa
21%
-4.5°
3
Windvlaag: -2.8 m/s
39%
03:00
-2°
Voelt als: -6.0°
1020.1 hPa
21%
-4.8°
3
Windvlaag: -2.4 m/s
24%
04:00
-3°
Voelt als: -6.1°
1023.0 hPa
21%
-5.9°
2
Windvlaag: 9 m/s
42%
05:00
-3°
Voelt als: -5.9°
1023.4 hPa
21%
-6.0°
2
Windvlaag: 8.3 m/s
80%
06:00
-3°
Voelt als: -5.7°
1023.8 hPa
21%
-5.8°
2
Windvlaag: 8.2 m/s
62%
07:00
-3°
Voelt als: -5.1°
1024.1 hPa
21%
-6.0°
1
Windvlaag: 6.8 m/s
80%
08:00
-4°
Voelt als: -5.0°
1024.5 hPa
21%
-5.9°
1
Windvlaag: 4.9 m/s
48%
09:00
-4°
Voelt als: -5.5°
1025.0 hPa
21%
-6.2°
1
Windvlaag: 3.8 m/s
7%
10:00
-1°
Voelt als: -4.1°
1024.5 hPa 15.4 mm
100%
-4.4°
2
Windvlaag: 3.8 m/s
17% warningclass
11:00
-0°
Voelt als: -2.3°
1024.8 hPa 15.4 mm
100%
-4.0°
2
Windvlaag: 3.1 m/s
48% warningclass
12:00
Voelt als: -1.2°
1025.2 hPa 15.4 mm
100%
-4.6°
2
Windvlaag: 3.7 m/s
62% warningclass
Temp/Neerslag /Baro Onweer/Dauwpunt
    Temp Baro Neerslag Dauwpunt Wind Bewolking  
 08:23     17:52    Daglengte: 9:29 Vandaag
15:00
10°
978.8 hPa   5.0°
4
28%
18:00
Voelt als: 7.3°
976.1 hPa   6.8°
2
71%
21:00
Voelt als: 6.7°
971.9 hPa 2.5 mm 8.4°
3
86%
 08:25     17:49    Daglengte: 9:24 Morgen
00:00
Voelt als: 6.7°
966.8 hPa 11.1 mm 8.3°
3
85%
03:00
Voelt als: 6.6°
964.8 hPa 4.8 mm 8.3°
3
86%
06:00
Voelt als: 3.8°
966.1 hPa 8.0 mm 6.2°
5
86%
09:00
Voelt als: 1.3°
967.9 hPa 10.0 mm 3.9°
6
86%
12:00
Voelt als: 0.5°
971.4 hPa 11.2 mm 3.4°
7
84%
15:00
Voelt als: -0.9°
974.9 hPa 11.3 mm 2.2°
7
86%
18:00
Voelt als: -1.3°
978.2 hPa 10.3 mm 2.0°
5
86%
21:00
Voelt als: -1.4°
981.1 hPa 10.3 mm 1.4°
5
86%
 08:28     17:46    Daglengte: 9:18 Zaterdag 23 Okt
00:00
Voelt als: -2.3°
983.9 hPa 10.5 mm 0.8°
4
84%
03:00
Voelt als: -2.9°
987.0 hPa 6.5 mm 0.4°
4
86% warningclass
06:00
Voelt als: -3.7°
991.0 hPa 6.2 mm -0.6°
5
100% warningclass
09:00
Voelt als: -4.4°
995.9 hPa 11.3 mm -0.5°
5
91% warningclass
12:00
Voelt als: -3.3°
1001.1 hPa   -1.2°
5
97%
15:00
Voelt als: -2.9°
1005.9 hPa   -1.6°
5
98%
18:00
Voelt als: -4.0°
1010.5 hPa   -2.9°
4
74%
21:00
-1°
Voelt als: -5.4°
1014.2 hPa   -3.6°
4
65%
 08:31     17:43    Daglengte: 9:12 Zondag 24 Okt
00:00
-2°
Voelt als: -6.3°
1017.5 hPa   -4.4°
4
39%
03:00
-2°
Voelt als: -6.0°
1020.1 hPa   -4.8°
3
24%
06:00
-3°
Voelt als: -5.7°
1023.8 hPa   -5.8°
2
62%
09:00
-4°
Voelt als: -5.5°
1025.0 hPa   -6.2°
1
7%
12:00
Voelt als: -1.2°
1025.2 hPa 46.2 mm -4.6°
2
62% warningclass
15:00
Voelt als: -1.6°
1025.4 hPa 46.2 mm -5.7°
3
77%
18:00
-0°
Voelt als: -4.1°
1025.1 hPa 26.4 mm -1.3°
3
1% warningclass
21:00
Voelt als: -4.1°
1022.9 hPa 26.9 mm 0.2°
5
1% warningclass
 08:33     17:40    Daglengte: 9:07 Maandag 25 Okt
00:00
Voelt als: -0.3°
1020.3 hPa 27.3 mm 3.0°
6
1%
03:00
Voelt als: 3.0°
1018.0 hPa 27.7 mm 5.6°
4
1%
06:00
Voelt als: 3.8°
1016.7 hPa 27.9 mm 5.7°
4
1%
09:00
Voelt als: 3.9°
1015.9 hPa 27.9 mm 5.7°
4
1%
12:00
Voelt als: 4.8°
1015.3 hPa 27.9 mm 5.8°
5
1%
15:00
Voelt als: 4.8°
1014.4 hPa 27.9 mm 4.5°
6
1%
18:00
Voelt als: 3.7°
1013.6 hPa 28.0 mm 4.6°
5
1%
21:00
Voelt als: 4.5°
1012.9 hPa 28.0 mm 4.6°
5
1%
 08:36     17:37    Daglengte: 9:01 Dinsdag 26 Okt
00:00
Voelt als: 4.8°
1012.1 hPa 28.0 mm 5.4°
4
1%
03:00
Voelt als: 4.2°
1011.6 hPa 28.0 mm 5.4°
3
1%
06:00
Voelt als: 3.9°
1010.7 hPa 28.0 mm 4.9°
4
1%
09:00
Voelt als: 4.5°
1010.3 hPa 28.0 mm 5.4°
2
1%
12:00
Voelt als: 5.3°
1009.8 hPa 28.0 mm 6.3°
3
1%
15:00
Voelt als: 6.4°
1008.6 hPa 28.0 mm 7.4°
3
1%
18:00
Voelt als: 5.9°
1007.3 hPa 28.2 mm 6.9°
3
1%
21:00
Voelt als: 5.4°
1007.0 hPa 28.4 mm 6.0°
3
1%
 08:39     17:34    Daglengte: 8:55 Woensdag 27 Okt
00:00
Voelt als: 4.8°
1006.5 hPa 28.6 mm 5.6°
3
1%
03:00
Voelt als: 3.5°
1007.8 hPa 28.7 mm 5.0°
4
1%
06:00
Voelt als: 3.4°
1009.3 hPa 28.8 mm 3.5°
4
1%
09:00
Voelt als: 3.2°
1010.8 hPa 28.8 mm 3.2°
2
1%
12:00
Voelt als: 5.2°
1011.5 hPa 28.8 mm 4.0°
2
1%
15:00
Voelt als: 5.8°
1010.5 hPa 28.8 mm 6.1°
3
1%
18:00
Voelt als: 5.0°
1007.8 hPa 30.2 mm 7.2°
4
1%
21:00
Voelt als: 6.4°
1005.2 hPa 31.6 mm 8.4°
4
1%
 08:41     17:32    Daglengte: 8:51 Donderdag 28 Okt
00:00
10°
Voelt als: 7.8°
1004.2 hPa 33.5 mm 9.5°
4
1%
03:00
11°
1003.4 hPa 33.8 mm 9.7°
5
1%
06:00
10°
1004.7 hPa 34.2 mm 8.8°
5
1%
09:00
Voelt als: 4.4°
1007.8 hPa 34.2 mm 5.1°
3
1%
12:00
Voelt als: 5.3°
1010.0 hPa   4.9°
4
1%
15:00
Voelt als: 6.6°
1010.5 hPa 68.5 mm 4.9°
3
1%
21:00
Voelt als: 5.7°
1009.5 hPa 68.5 mm 7.3°
3
1%
 08:44     17:29    Daglengte: 8:45 Vrijdag 29 Okt
03:00
11°
1008.4 hPa 68.9 mm 10.2°
4
1%
09:00
11°
1010.4 hPa 69.1 mm 9.5°
4
1%
15:00
12°
1012.2 hPa 69.1 mm 10.1°
5
1%
21:00
11°
1014.2 hPa 69.5 mm 10.0°
4
1%
 08:47     17:26    Daglengte: 8:39 Zaterdag 30 Okt
03:00
10°
1017.5 hPa 70.1 mm 8.7°
4
1%
09:00
Voelt als: 5.8°
1019.6 hPa 70.1 mm 4.2°
2
1%
15:00
Voelt als: 8.3°
1020.6 hPa 70.1 mm 4.7°
2
1%
21:00
Voelt als: 6.3°
1021.7 hPa 70.1 mm 3.2°
1
1%
 08:50     17:23    Daglengte: 8:33 Zondag 31 Okt
03:00
Voelt als: 4.5°
1021.3 hPa 70.1 mm 3.4°
1
1%
08:00
Voelt als: 3.4°
1010.0 hPa 0.1 mm 3.7°
2
85%
14:00
Voelt als: 5.6°
1009.0 hPa 0.3 mm 4.7°
2
86%
20:00
Voelt als: 4.3°
1008.0 hPa 0.8 mm 4.3°
2
82%
 08:52     17:20    Daglengte: 8:28 Maandag 01 Nov
02:00
Voelt als: 3.5°
1007.0 hPa 0.6 mm 3.7°
2
78%
08:00
Voelt als: 3.4°
1005.6 hPa 0.8 mm 3.6°
2
88%
14:00
Voelt als: 5.4°
1005.5 hPa 0.9 mm 4.1°
2
88%
20:00
Voelt als: 4.2°
1005.5 hPa 0.4 mm 3.3°
1
88%
 08:55     17:18    Daglengte: 8:23 Dinsdag 02 Nov
02:00
Voelt als: 3.1°
1004.7 hPa 0.7 mm 3.0°
2
78%
08:00
Voelt als: 3.3°
1004.6 hPa 0.5 mm 2.6°
1
88%
14:00
Voelt als: 4.1°
1005.3 hPa 0.5 mm 2.7°
2
83%
20:00
Voelt als: 2.5°
1005.1 hPa 0.7 mm 2.9°
2
82%
 08:58     17:15    Daglengte: 8:17 Woensdag 03 Nov
02:00
Voelt als: 2.3°
1005.0 hPa 0.4 mm 2.7°
2
76%
08:00
Voelt als: 2.2°
1004.0 hPa 0.4 mm 2.4°
2
73%
14:00
Voelt als: 3.8°
1003.2 hPa 0.6 mm 2.2°
2
77%
20:00
Voelt als: 2.8°
1002.8 hPa   2.0°
1
76%
 09:01     17:12    Daglengte: 8:11 Donderdag 04 Nov
02:00
Voelt als: 2.4°
1003.3 hPa 0.1 mm 1.5°
1
79%
08:00
1004.0 hPa 0.5 mm 1.2°
1
78%
14:00
Voelt als: 3.8°
1004.3 hPa 0.5 mm 1.6°
1
81%
20:00
Voelt als: 2.4°
1004.6 hPa 0.9 mm 1.5°
1
77%
 09:03     17:10    Daglengte: 8:07 Vrijdag 05 Nov
02:00
Voelt als: 1.3°
1005.3 hPa 0.5 mm 0.7°
1
70%
08:00
Voelt als: 0.6°
1005.8 hPa 0.6 mm 0.1°
2
75%
  CAPE Lifted Index Hail Supercell Tornado SRH 3km CL BTM PRES CL TOP PRES Swiss DWD icon SMHI TS
 08:23     17:52    Daglengte: 9:29 Vandaag
13:00 23 J/kg 5.2 K 0 % 0 % 0 % 0 m²/s² 0 0 8.26 3
14:00 31 J/kg 5.2 K 0 % 0 % 0 % 0 m²/s² 0 0 7.96 2
15:00 17 J/kg 5.9 K 0 % 0 % 0 % 0 m²/s² 0 0 9.8 2
16:00 7 J/kg 5.5 K 0 % 0 % 0 % 0 m²/s² 0 0 8.92 1
17:00 0 J/kg 4.2 K 0 % 0 % 0 % 0 m²/s² 0 0 8.4 1
18:00 0 J/kg 3.1 K 0 % 0 % 0 % 0 m²/s² 0 0 3.73 3
19:00 48 J/kg 2.8 K 0 % 0 % 0 % 0 m²/s² 0 0 3.04 3
20:00 58 J/kg 2.3 K 0 % 0 % 0 % 0 m²/s² 0 0 2.54 3
21:00 18 J/kg 1.5 K 0 % 0 % 0 % 0 m²/s² 0 0 1.65 61
22:00 62 J/kg 0.5 K 0 % 0 % 0 % 0 m²/s² 0 0 1.94 61
23:00 106 J/kg 0.3 K 0 % 0 % 0 % 0 m²/s² 0 0 1.74 63
 08:25     17:49    Daglengte: 9:24 Morgen
00:00 110 J/kg 0.6 K 0 % 0 % 0 % 0 m²/s² 0 0 2.01 61
01:00 101 J/kg -0.4 K 0 % 0 % 0 % 0 m²/s² 0 0 0.98 3
02:00 4 J/kg -0.4 K 0 % 0 % 0 % 0 m²/s² 0 0 0.53 3
03:00 56 J/kg 1.3 K 0 % 0 % 0 % 0 m²/s² 0 0 1.84 61
04:00 22 J/kg 3.0 K 0 % 0 % 0 % 0 m²/s² 0 0 3.33 61
05:00 16 J/kg 3.9 K 0 % 0 % 0 % 0 m²/s² 0 0 4.26 61
06:00 12 J/kg 4.0 K 0 % 0 % 0 % 0 m²/s² 0 0 4.36 61
07:00 5 J/kg 4.9 K 0 % 0 % 0 % 0 m²/s² 0 0 5.29 61
08:00 5 J/kg 5.6 K 0 % 0 % 0 % 0 m²/s² 0 0 5.99 61
09:00 4 J/kg 6.5 K 0 % 0 % 0 % 0 m²/s² 0 0 6.89 61
10:00 0 J/kg 7.1 K 0 % 0 % 0 % 0 m²/s² 0 0 7.49 61
11:00 0 J/kg 7.3 K 0 % 0 % 0 % 0 m²/s² 0 0 7.69 61
12:00 0 J/kg 7.4 K 0 % 0 % 0 % 0 m²/s² 0 0 7.85 61
13:00 0 J/kg 7.1 K 0 % 0 % 0 % 0 m²/s² 0 0 7.55 63
14:00 1 J/kg 7.0 K 0 % 0 % 0 % 0 m²/s² 0 0 7.39 61
15:00 3 J/kg 7.1 K 0 % 0 % 0 % 0 m²/s² 0 0 7.49 61
16:00 1 J/kg 6.4 K 0 % 0 % 0 % 0 m²/s² 0 0 6.79 61
17:00 0 J/kg 6.0 K 0 % 0 % 0 % 0 m²/s² 0 0 6.39 61
18:00 8 J/kg 6.1 K 0 % 0 % 0 % 0 m²/s² 0 0 6.55 61
19:00 16 J/kg 6.8 K 0 % 0 % 0 % 0 m²/s² 0 0 7.25 61
20:00 22 J/kg 7.4 K 0 % 0 % 0 % 0 m²/s² 0 0 8 61
21:00 12 J/kg 7.3 K 0 % 0 % 0 % 0 m²/s² 0 0 8.26 71
22:00 7 J/kg 7.6 K 0 % 0 % 0 % 0 m²/s² 0 0 8.8 71
23:00 5 J/kg 8.3 K 0 % 0 % 0 % 0 m²/s² 0 0 9.65 71
 08:28     17:46    Daglengte: 9:18 Zaterdag 23 Okt
00:00 2 J/kg 8.0 K 0 % 0 % 0 % 0 m²/s² 0 0 9.26 71
01:00 2 J/kg 7.6 K 0 % 0 % 0 % 0 m²/s² 0 0 8.77 71
02:00 8 J/kg 7.3 K 0 % 0 % 0 % 0 m²/s² 0 0 8.14 71
03:00 12 J/kg 6.5 K 0 % 0 % 0 % 0 m²/s² 0 0 7.25 71
04:00 6 J/kg 6.8 K 0 % 0 % 0 % 0 m²/s² 0 0 7.73 71
05:00 6 J/kg 7.3 K 0 % 0 % 0 % 0 m²/s² 0 0 7.9 71
06:00 6 J/kg 8.2 K 0 % 0 % 0 % 0 m²/s² 0 0 8.77 71
07:00 7 J/kg 10.4 K 0 % 0 % 0 % 0 m²/s² 0 0 11.45 71
08:00 3 J/kg 11.5 K 0 % 0 % 0 % 0 m²/s² 0 0 13.09 71
09:00 2 J/kg 11.4 K 0 % 0 % 0 % 0 m²/s² 0 0 12.6 3
10:00 2 J/kg 11.2 K 0 % 0 % 0 % 0 m²/s² 0 0 11.68 3
11:00 3 J/kg 10.4 K 0 % 0 % 0 % 0 m²/s² 0 0 10.79 3
12:00 3 J/kg 10.2 K 0 % 0 % 0 % 0 m²/s² 0 0 10.71 3
13:00 10 J/kg 9.8 K 0 % 0 % 0 % 0 m²/s² 0 0 11.69 3
14:00 12 J/kg 9.9 K 0 % 0 % 0 % 0 m²/s² 0 0 10.95 3
15:00 13 J/kg 9.8 K 0 % 0 % 0 % 0 m²/s² 0 0 10.85 3
16:00 13 J/kg 10.7 K 0 % 0 % 0 % 0 m²/s² 0 0 13.31 3
17:00 10 J/kg 11.5 K 0 % 0 % 0 % 0 m²/s² 0 0 17.59 3
18:00 8 J/kg 11.4 K 0 % 0 % 0 % 0 m²/s² 0 0 18.33 2
19:00 5 J/kg 11.1 K 0 % 0 % 0 % 0 m²/s² 0 0 17.76 2
20:00 1 J/kg 11.1 K 0 % 0 % 0 % 0 m²/s² 0 0 16.44 2
21:00 0 J/kg 11.8 K 0 % 0 % 0 % 0 m²/s² 0 0 16.96 2
22:00 0 J/kg 14.6 K 0 % 0 % 0 % 0 m²/s² 0 0 19.34 2
23:00 0 J/kg 16.5 K 0 % 0 % 0 % 0 m²/s² 0 0 20.97 1
 08:31     17:43    Daglengte: 9:12 Zondag 24 Okt
00:00 0 J/kg 18.1 K 0 % 0 % 0 % 0 m²/s² 0 0 23.05 2
01:00 0 J/kg 18.7 K 0 % 0 % 0 % 0 m²/s² 0 0 24.4 2
02:00 0 J/kg 19.6 K 0 % 0 % 0 % 0 m²/s² 0 0 25.51 2
03:00 0 J/kg 20.3 K 0 % 0 % 0 % 0 m²/s² 0 0 26.84 2
04:00 0 J/kg 20.8 K 0 % 0 % 0 % 0 m²/s² 0 0 27.85 2
05:00 0 J/kg 21.5 K 0 % 0 % 0 % 0 m²/s² 0 0 28.58 3
06:00 0 J/kg 21.8 K 0 % 0 % 0 % 0 m²/s² 0 0 28.43 45
07:00 0 J/kg 21.9 K 0 % 0 % 0 % 0 m²/s² 0 0 28.11 45
08:00 0 J/kg 22.0 K 0 % 0 % 0 % 0 m²/s² 0 0 27.85 45
09:00 0 J/kg 22.1 K 0 % 0 % 0 % 0 m²/s² 0 0 27.2 45
10:00 0 J/kg 22.2 K 0 % 0 % 0 % 0 m²/s² 0 0 26.46
11:00 0 J/kg 22.5 K 0 % 0 % 0 % 0 m²/s² 0 0 25.56
12:00 0 J/kg 22.4 K 0 % 0 % 0 % 0 m²/s² 0 0 24.53
Temp Baro Wind Neerslag
  EWN Forecast EWN WRFDA DWD ICON FMI HIRLAM MET Norway GFS
 08:23     17:52    Daglengte: 9:29 Vandaag
15:00 10.5° 978.8 hPa 3.6 m/s 0.0 mm 11.1° 976.9 hPa 5.5 m/s 0.1 mm 10.5° 979.0 hPa 3.8 m/s 0.0 mm 10.6° 979.7 hPa 2.7 m/s 0.0 mm 10.6° 979.2 hPa 3.3 m/s
18:00 8.7° 976.1 hPa 2.5 m/s 0.0 mm 9.8° 973.5 hPa 4.5 m/s 0.2 mm 8.5° 976.1 hPa 2.2 m/s 0.0 mm 9.0° 977.6 hPa 1.9 m/s 0.0 mm 9.2° 975.6 hPa 3.2 m/s
21:00 8.5° 971.9 hPa 3.0 m/s 2.5 mm 9.4° 967.2 hPa 1.9 m/s 16.5 mm 8.4° 972.3 hPa 3.2 m/s 1.1 mm 8.1° 973.4 hPa 2.0 m/s 0.0 mm 9.0° 970.5 hPa 4.2 m/s
 08:25     17:49    Daglengte: 9:24 Morgen
00:00 8.7° 966.8 hPa 3.4 m/s 11.1 mm 9.2° 964.0 hPa 4.6 m/s 29.8 mm 8.9° 967.4 hPa 3.4 m/s 5.7 mm 8.6° 967.7 hPa 2.7 m/s 0.0 mm 9.5° 967.7 hPa 3.7 m/s
03:00 8.5° 964.8 hPa 3.3 m/s 4.8 mm 8.7° 961.6 hPa 5.3 m/s 30.7 mm 8.8° 964.8 hPa 3.2 m/s 0.6 mm 8.8° 964.8 hPa 0.8 m/s 0.0 mm 8.6° 965.2 hPa 5.0 m/s
06:00 6.9° 966.1 hPa 4.8 m/s 8.0 mm 6.0° 962.4 hPa 8.2 m/s 33.4 mm 6.9° 965.3 hPa 4.4 m/s 0.8 mm 6.9° 967.3 hPa 4.9 m/s 0.0 mm 7.2° 964.0 hPa 5.2 m/s
09:00 5.3° 967.9 hPa 5.8 m/s 10.0 mm 4.9° 964.7 hPa 9.2 m/s 39.4 mm 6.2° 965.1 hPa 3.8 m/s 1.9 mm 4.9° 971.3 hPa 5.6 m/s 0.0 mm 6.6° 963.8 hPa 4.4 m/s
12:00 4.9° 971.4 hPa 6.6 m/s 11.2 mm 4.5° 967.5 hPa 9.1 m/s 40.7 mm 6.0° 966.3 hPa 6.4 m/s 4.7 mm 5.0° 974.9 hPa 4.5 m/s 0.0 mm 3.1° 969.7 hPa 8.6 m/s
15:00 3.8° 974.9 hPa 6.6 m/s 11.3 mm 5.6° 969.9 hPa 9.8 m/s 40.9 mm 3.4° 973.0 hPa 6.4 m/s 5.6 mm 4.8° 977.9 hPa 4.5 m/s 0.0 mm 3.2° 973.8 hPa 8.0 m/s
18:00 3.1° 978.2 hPa 5.5 m/s 10.3 mm 4.9° 973.0 hPa 7.3 m/s 41.3 mm 2.6° 978.2 hPa 5.2 m/s 3.1 mm 4.5° 980.0 hPa 3.6 m/s 0.0 mm 3.2° 976.8 hPa 5.1 m/s
21:00 2.6° 981.1 hPa 4.6 m/s 10.3 mm 3.8° 976.0 hPa 4.9 m/s 42.5 mm 0.4° 982.7 hPa 4.5 m/s 2.2 mm 4.9° 981.4 hPa 3.6 m/s 0.0 mm 1.8° 980.9 hPa 4.2 m/s
 08:28     17:46    Daglengte: 9:18 Zaterdag 23 Okt
00:00 1.7° 983.9 hPa 4.1 m/s 10.5 mm 2.9° 978.1 hPa 3.6 m/s 42.5 mm -0.4° 986.5 hPa 4.3 m/s 2.7 mm 4.3° 983.1 hPa 3.5 m/s 0.0 mm 1.2° 983.8 hPa 4.3 m/s
03:00 1.0° 987.0 hPa 3.8 m/s 6.5 mm 3.1° 981.2 hPa 2.8 m/s 42.8 mm 0.0° 990.7 hPa 4.3 m/s 2.2 mm 2.2° 986.2 hPa 2.3 m/s 0.0 mm 1.4° 987.3 hPa 4.8 m/s
06:00 0.7° 991.0 hPa 4.6 m/s 6.2 mm 0.8° 986.1 hPa 6.1 m/s 43.8 mm 0.3° 995.5 hPa 4.4 m/s 1.0 mm 0.9° 992.4 hPa 5.2 m/s
09:00 0.3° 995.9 hPa 4.8 m/s 11.3 mm -0.2° 990.1 hPa 6.8 m/s 44.0 mm 0.2° 1000.7 hPa 4.5 m/s 0.4 mm 0.4° 997.7 hPa 5.7 m/s
12:00 1.4° 1001.1 hPa 5.2 m/s 0.0 mm 1.7° 996.2 hPa 8.2 m/s 45.7 mm 0.7° 1006.3 hPa 4.4 m/s 0.0 mm 1.1° 1003.2 hPa 5.1 m/s
15:00 1.5° 1005.9 hPa 4.7 m/s 0.0 mm 1.6° 1002.4 hPa 7.3 m/s 46.1 mm 0.7° 1011.1 hPa 4.2 m/s 0.0 mm 1.2° 1007.6 hPa 4.5 m/s
18:00 0.5° 1010.5 hPa 4.4 m/s 0.0 mm 0.6° 1008.4 hPa 6.7 m/s 46.1 mm -0.4° 1015.0 hPa 3.1 m/s 0.0 mm 0.7° 1011.8 hPa 4.3 m/s
21:00 -0.9° 1014.2 hPa 3.9 m/s 0.0 mm -1.5° 1013.0 hPa 5.7 m/s 46.2 mm -1.2° 1018.3 hPa 2.5 m/s 0.0 mm -1.4° 1015.1 hPa 3.4 m/s
 08:31     17:43    Daglengte: 9:12 Zondag 24 Okt
00:00 -1.9° 1017.5 hPa 3.5 m/s 0.0 mm -2.1° 1016.8 hPa 4.2 m/s 46.2 mm -2.8° 1021.1 hPa 1.8 m/s 0.0 mm -2.2° 1018.2 hPa 2.9 m/s
03:00 -2.1° 1020.1 hPa 3.0 m/s 0.0 mm -2.0° 1019.6 hPa 3.5 m/s 46.2 mm -3.0° 1023.1 hPa 1.7 m/s 0.0 mm -2.7° 1020.7 hPa 2.2 m/s
06:00 -3.2° 1023.8 hPa 1.7 m/s 0.0 mm -2.1° 1021.9 hPa 2.8 m/s 46.2 mm -3.5° 1024.3 hPa 1.4 m/s 0.0 mm -3.0° 1022.8 hPa 1.8 m/s
09:00 -3.9° 1025.0 hPa 1.2 m/s 0.0 mm -2.3° 1023.5 hPa 2.0 m/s 46.2 mm -4.2° 1025.4 hPa 0.9 m/s 0.0 mm -3.1° 1024.6 hPa 0.9 m/s
12:00 1.2° 1025.2 hPa 2.1 m/s 46.2 mm 1.2° 1025.2 hPa 2.1 m/s 46.2 mm 1.0° 1025.6 hPa 0.9 m/s
15:00 1.9° 1025.4 hPa 3.5 m/s 46.2 mm 1.9° 1025.4 hPa 3.5 m/s 46.2 mm 1.7° 1025.8 hPa 2.3 m/s
18:00 -0.4° 1025.1 hPa 3.1 m/s 26.4 mm -0.4° 1025.1 hPa 3.1 m/s 26.4 mm
21:00 0.6° 1022.9 hPa 4.9 m/s 26.9 mm 0.6° 1022.8 hPa 4.9 m/s 26.9 mm
 08:33     17:40    Daglengte: 9:07 Maandag 25 Okt
00:00 4.0° 1020.3 hPa 5.8 m/s 27.3 mm 4.0° 1020.3 hPa 5.8 m/s 27.3 mm
03:00 6.0° 1018.0 hPa 4.3 m/s 27.7 mm 6.0° 1018.0 hPa 4.3 m/s 27.7 mm
06:00 6.8° 1016.7 hPa 4.4 m/s 27.9 mm 6.8° 1016.7 hPa 4.4 m/s 27.9 mm
09:00 6.8° 1015.9 hPa 4.2 m/s 27.9 mm 6.8° 1015.9 hPa 4.2 m/s 27.9 mm
12:00 7.8° 1015.3 hPa 5.2 m/s 27.9 mm 7.8° 1015.3 hPa 5.2 m/s 27.9 mm
15:00 8.0° 1014.4 hPa 6.0 m/s 27.9 mm 8.0° 1014.4 hPa 6.0 m/s 27.9 mm
18:00 6.8° 1013.6 hPa 4.8 m/s 28.0 mm 6.8° 1013.6 hPa 4.8 m/s 28.0 mm
21:00 7.3° 1012.9 hPa 4.5 m/s 28.0 mm 7.3° 1012.9 hPa 4.5 m/s 28.0 mm
 08:36     17:37    Daglengte: 9:01 Dinsdag 26 Okt
00:00 7.2° 1012.1 hPa 3.7 m/s 28.0 mm 7.2° 1012.1 hPa 3.7 m/s 28.0 mm
03:00 6.5° 1011.6 hPa 3.2 m/s 28.0 mm 6.5° 1011.6 hPa 3.2 m/s 28.0 mm
06:00 6.4° 1010.7 hPa 3.6 m/s 28.0 mm 6.4° 1010.7 hPa 3.6 m/s 28.0 mm
09:00 6.3° 1010.3 hPa 2.4 m/s 28.0 mm 6.3° 1010.3 hPa 2.4 m/s 28.0 mm
12:00 7.1° 1009.8 hPa 2.6 m/s 28.0 mm 7.1° 1009.8 hPa 2.6 m/s 28.0 mm
15:00 8.2° 1008.6 hPa 2.9 m/s 28.0 mm 8.2° 1008.6 hPa 2.9 m/s 28.0 mm
18:00 7.8° 1007.3 hPa 3.0 m/s 28.2 mm 7.8° 1007.3 hPa 3.0 m/s 28.2 mm
21:00 7.5° 1007.0 hPa 3.3 m/s 28.4 mm 7.5° 1007.0 hPa 3.3 m/s 28.4 mm
 08:39     17:34    Daglengte: 8:55 Woensdag 27 Okt
00:00 6.8° 1006.5 hPa 2.9 m/s 28.6 mm 6.8° 1006.5 hPa 2.9 m/s 28.6 mm
03:00 6.6° 1007.8 hPa 4.4 m/s 28.7 mm 6.6° 1007.8 hPa 4.4 m/s 28.7 mm
06:00 6.1° 1009.3 hPa 3.8 m/s 28.8 mm 6.1° 1009.3 hPa 3.8 m/s 28.8 mm
09:00 4.8° 1010.8 hPa 2.0 m/s 28.8 mm 4.8° 1010.8 hPa 2.0 m/s 28.8 mm
12:00 6.3° 1011.5 hPa 1.7 m/s 28.8 mm 6.3° 1011.5 hPa 1.7 m/s 28.8 mm
15:00 7.5° 1010.5 hPa 2.6 m/s 28.8 mm 7.5° 1010.5 hPa 2.6 m/s 28.8 mm
18:00 7.6° 1007.8 hPa 4.1 m/s 30.2 mm 7.6° 1007.8 hPa 4.1 m/s 30.2 mm
21:00 8.8° 1005.2 hPa 4.2 m/s 31.6 mm 8.8° 1005.2 hPa 4.2 m/s 31.6 mm
 08:41     17:32    Daglengte: 8:51 Donderdag 28 Okt
00:00 9.9° 1004.2 hPa 4.3 m/s 33.5 mm 9.9° 1004.2 hPa 4.3 m/s 33.5 mm
03:00 10.5° 1003.4 hPa 4.9 m/s 33.8 mm 10.5° 1003.4 hPa 4.9 m/s 33.8 mm
06:00 10.2° 1004.7 hPa 4.7 m/s 34.2 mm 10.2° 1004.7 hPa 4.7 m/s 34.2 mm
09:00 6.8° 1007.8 hPa 3.4 m/s 34.2 mm 6.8° 1007.8 hPa 3.4 m/s 34.2 mm
12:00 7.7° 1010.0 hPa 3.8 m/s 34.2 mm 7.7° 1010.0 hPa 3.8 m/s 34.2 mm
15:00 8.3° 1010.5 hPa 2.9 m/s 34.2 mm 8.3° 1010.5 hPa 2.9 m/s 34.2 mm
21:00 7.9° 1009.5 hPa 3.4 m/s 34.2 mm 7.9° 1009.5 hPa 3.4 m/s 34.2 mm
 08:44     17:29    Daglengte: 8:45 Vrijdag 29 Okt
03:00 10.8° 1008.4 hPa 3.9 m/s 34.5 mm 10.8° 1008.4 hPa 3.9 m/s 34.5 mm
09:00 10.9° 1010.4 hPa 4.4 m/s 34.6 mm 10.9° 1010.4 hPa 4.4 m/s 34.6 mm
15:00 11.8° 1012.2 hPa 4.8 m/s 34.6 mm 11.8° 1012.2 hPa 4.8 m/s 34.6 mm
21:00 11.3° 1014.2 hPa 4.4 m/s 34.9 mm 11.3° 1014.2 hPa 4.4 m/s 34.9 mm
 08:47     17:26    Daglengte: 8:39 Zaterdag 30 Okt
03:00 10.3° 1017.5 hPa 3.7 m/s 35.0 mm 10.3° 1017.5 hPa 3.7 m/s 35.0 mm
09:00 7.2° 1019.6 hPa 2.2 m/s 35.0 mm 7.2° 1019.6 hPa 2.2 m/s 35.0 mm
15:00 9.4° 1020.6 hPa 2.3 m/s 35.0 mm 9.4° 1020.6 hPa 2.3 m/s 35.0 mm
21:00 6.4° 1021.7 hPa 1.0 m/s 35.0 mm 6.4° 1021.7 hPa 1.0 m/s 35.0 mm
 08:50     17:23    Daglengte: 8:33 Zondag 31 Okt
03:00 5.4° 1021.3 hPa 1.4 m/s 35.0 mm 5.4° 1021.3 hPa 1.4 m/s 35.0 mm
08:00 5.1° 1010.0 hPa 2.0 m/s 0.1 mm
14:00 7.2° 1009.0 hPa 2.4 m/s 0.3 mm
20:00 5.9° 1008.0 hPa 2.1 m/s 0.8 mm
 08:52     17:20    Daglengte: 8:28 Maandag 01 Nov
02:00 5.1° 1007.0 hPa 1.9 m/s 0.6 mm
08:00 5.0° 1005.6 hPa 1.9 m/s 0.8 mm
14:00 6.8° 1005.5 hPa 2.0 m/s 0.9 mm
20:00 4.9° 1005.5 hPa 1.2 m/s 0.4 mm
 08:55     17:18    Daglengte: 8:23 Dinsdag 02 Nov
02:00 4.4° 1004.7 hPa 1.6 m/s 0.7 mm
08:00 4.3° 1004.6 hPa 1.4 m/s 0.5 mm
14:00 5.5° 1005.3 hPa 1.9 m/s 0.5 mm
20:00 4.4° 1005.1 hPa 2.1 m/s 0.7 mm
 08:58     17:15    Daglengte: 8:17 Woensdag 03 Nov
02:00 4.1° 1005.0 hPa 2.0 m/s 0.4 mm
08:00 3.9° 1004.0 hPa 1.9 m/s 0.4 mm
14:00 5.2° 1003.2 hPa 1.8 m/s 0.6 mm
20:00 4.0° 1002.8 hPa 1.5 m/s 0.0 mm
 09:01     17:12    Daglengte: 8:11 Donderdag 04 Nov
02:00 3.3° 1003.3 hPa 1.3 m/s 0.1 mm
08:00 2.7° 1004.0 hPa 0.7 m/s 0.5 mm
14:00 4.6° 1004.3 hPa 1.3 m/s 0.5 mm
20:00 3.3° 1004.6 hPa 1.2 m/s 0.9 mm
 09:03     17:10    Daglengte: 8:07 Vrijdag 05 Nov
02:00 2.5° 1005.3 hPa 1.3 m/s 0.5 mm
08:00 2.2° 1005.8 hPa 1.6 m/s 0.6 mm
FMI Hirlam - 7.5 km EWN WRFDA - 12 km DWD ICON - 7 km GFS - 25 km Basiskaart






























































Updatetijd (Europe/Amsterdam) Resolutie Lengte Stap
FMI Hirlam 07:30, 13:30, 19:30, 01:30 7.5 km 49h 1h
EWN WRFDA 09:45, 15:45, 21:45, 03:45 12 km 73h 1h
DWD ICON 06:00, 12:00, 18:00, 00:00 7 km 75h 1h
GFS 08:30, 14:30, 20:30, 02:30 25 km 237h 3h
30+ mm
25-30 mm
20-25 mm
15-20 mm
10-15 mm
6-10 mm
4-6 mm
2-4 mm
1-2 mm
0.5-1 mm
0.2-0.5 mm
0.1-0.2 mm
30+ mm
25-30 mm
20-25 mm
15-20 mm
10-15 mm
6-10 mm
4-6 mm
2-4 mm
1-2 mm
0.5-1 mm
0.2-0.5 mm
0.1-0.2 mm
Sneeuwval
Natte sneeuw
Hagel
Vorst
30+ mm
25-30 mm
20-25 mm
15-20 mm
10-15 mm
6-10 mm
4-6 mm
2-4 mm
1-2 mm
0.5-1 mm
0.2-0.5 mm
0.1-0.2 mm
Sneeuwval
Natte sneeuw
Hagel
Vorst
Onweer
50 mm
40 mm
30 mm
26 mm
22 mm
18 mm
14 mm
10 mm
9 mm
8 mm
7 mm
6 mm
5 mm
4.5 mm
4 mm
3.5 mm
3 mm
2.5 mm
2 mm
1.5 mm
1 mm
0.8 mm
0.6 mm
0.4 mm
0.2 mm
0.05 mm
35°
30°
25°
20°
15°
10°
-5°
-10°
-15°
-20°
-25°
-30°
-35°
33> m/s
29 m/s
25 m/s
21 m/s
17 m/s
14 m/s
11 m/s
8 m/s
5 m/s
3 m/s
0 m/s
2600 J/kg
2400 J/kg
2200 J/kg
2000 J/kg
1800 J/kg
1600 J/kg
1400 J/kg
1200 J/kg
1000 J/kg
800 J/kg
600 J/kg
400 J/kg
200 J/kg
70 dBZ
65 dBZ
60 dBZ
55 dBZ
50 dBZ
45 dBZ
40 dBZ
35 dBZ
30 dBZ
25 dBZ
20 dBZ
15 dBZ
10 dBZ
5 dBZ
-1 K
-2 K
-3 K
-4 K
-5 K
-6 K
-7 K
-8 K
-9 K
950 m²/s²
900 m²/s²
850 m²/s²
800 m²/s²
750 m²/s²
700 m²/s²
650 m²/s²
600 m²/s²
550 m²/s²
500 m²/s²
450 m²/s²
400 m²/s²
350 m²/s²
300 m²/s²
250 m²/s²
200 m²/s²
150 m²/s²
100 m²/s²
46 m/s
44 m/s
42 m/s
40 m/s
38 m/s
36 m/s
34 m/s
32 m/s
30 m/s
28 m/s
26 m/s
24 m/s
22 m/s
20 m/s
16 m/s
12 m/s
8 m/s
4 m/s
30 m/s
28 m/s
26 m/s
24 m/s
22 m/s
20 m/s
18 m/s
16 m/s
14 m/s
12 m/s
10 m/s
8 m/s
6 m/s
4 m/s
2 m/s
3.0
2.8
2.6
2.4
2.2
2.0
1.8
1.6
1.4
1.2
1.0
0.8
0.6
0.4
0.2
15
14
13
12
11
10
9
8
7
6
5
4
3
2
1
90%
80%
70%
60%
50%
40%
30%
20%
10%
42
40
38
36
34
32
30
28
26
24
22
20
18
16
14
12
90+ cm
80-90 cm
70-80 cm
60-70 cm
50-60 cm
40-50 cm
30-40 cm
20-30 cm
10-20 cm
1-10 cm
Sneeuwval
Natte sneeuw
Regen
>120 mm
115 mm
110 mm
105 mm
100 mm
95 mm
90 mm
85 mm
80 mm
75 mm
70 mm
65 mm
60 mm
55 mm
50 mm
45 mm
45 mm
40 mm
35 mm
30 mm
25 mm
20 mm
15 mm
10 mm
5 mm
0.1 mm
960 hPa
880 hPa
800 hPa
720 hPa
640 hPa
560 hPa
584 gpdm
568 gpdm
552 gpdm
536 gpdm
520 gpdm
504 gpdm
488 gpdm
Extreem zwaar Noodweer Kans op onweer
15% 15% 5% 50% 15%

Dag




Kaart






35°
30°
25°
20°
15°
10°
-5°
-10°
-15°
-20°
-25°
-30°
-35°
33> m/s
29 m/s
25 m/s